Tracking 35280 objects as of 7-Sep-2026
HD Live streaming from Space Station
objects crossing your sky now

IRS P6

Track IRS P6 now!
10-day predictions
IRS P6 is classified as:


NORAD ID: 28051
Int'l Code: 2003-046A
Launch date: October 17, 2003
Source: India (IND)
Launch site: SRIHARIKOTA (SRI)

Monitor agricultural, land, and water resources.
Your satellite tracking list
Your tracking list is empty




NASA's NSSDC Master Catalog

Two Line Element Set (TLE):
1 28051U 03046A   26250.30535955  .00000125  00000-0  55256-4 0  9994
2 28051  98.1870 282.7785 0065442  95.5655 357.0406 14.36183834192318
Source of the keplerian elements: AFSPC